Location: Ponte Samoggia
(44.5667°N, 11.1333°E)
Time: 23:49:41
(UTC+00:00)

GP-B - Pass Details

Date: 26 May 2022
Orbit: 630 x 634 km, 89.8° (Epoch: 26 June)

Event Time Altitude Azimuth Distance (km) Brightness Sun altitude
Rises 00:50:56 0° 355° (N) 2,938 7.6 -20.6°
Reaches altitude 10° 00:53:13 10° 349° (N) 2,024 6.4 -20.4°
Maximum altitude 00:57:27 45° 278° (W) 869 3.6 -20.1°
Enters shadow 00:58:13 40° 248° (WSW) 929 3.6 -20.0°
